Tracking 22779 objects as of 10-Apr-2021
HD Live streaming from Space Station
objects crossing your sky now

SL-12 R/B(AUX MOTOR)

Track SL-12 R/B(AUX MOTOR) now!
10-day predictions


NORAD ID: 28919
Int'l Code: 2005-050E
Perigee: 695.8 km
Apogee: 18,809.2 km
Inclination: 65.3 °
Period: 339.6 minutes
Semi major axis: 16123 km
RCS: 0.5815 m2 (medium)
Launch date: December 25, 2005
Source: Commonwealth of Independent States (former USSR) (CIS)
Launch site: TYURATAM MISSILE AND SPACE COMPLEX (TTMTR)

Note: This is a ROCKET BODY
aabbcc
Your satellite tracking list
Your tracking list is empty




NASA's NSSDC Master Catalog

Two Line Element Set (TLE):
1 28919U 05050E   21099.07005783 -.00000067  00000-0 -35919-3 0  9995
2 28919  65.3316   5.6229 5617107 291.7067  19.1295  4.24047246235974
Source of the keplerian elements: AFSPC